Weather History for KMBL - May, 2013

Change the Weather History Date:

Tuesday, May 14, 2013

  Actual Average Record
Temperature  
Mean Temperature 54 °F -  
Max Temperature 66 °F 64 °F 85 °F (1982)
Min Temperature 41 °F 43 °F 32 °F (1984)
Degree Days  
Heating Degree Days 12    
Growing Degree Days 4 (Base 50)    
Moisture  
Dew Point 39 °F    
Average Humidity 54    
Maximum Humidity 76    
Minimum Humidity 39    
Precipitation  
Precipitation 0.02 in - - ()
Sea Level Pressure  
Sea Level Pressure 29.80 in    
Wind  
Wind Speed 7 mph (SSE)    
Max Wind Speed 14 mph    
Max Gust Speed 20 mph    
Visibility 10 miles    
Events      
Averages and records for this station are not official NWS values.
T = Trace of Precipitation, MM = Missing Value Source: NWS Daily Summary

Daily Weather History Graph

Daily Weather History Graph

Search for Another Location

Airport or City:

Trip Planner

Search our weather history database for the weather conditions in past years. The results will help you decide how hot, cold, wet, or windy it might be!

Date:

Astronomy

May. 14, 2013 Rise Set
Actual Time 6:18 AM EDT 9:04 PM EDT
Civil Twilight 5:45 AM EDT 9:38 PM EDT
Nautical Twilight 5:03 AM EDT 10:20 PM EDT
Astronomical Twilight 4:14 AM EDT 11:09 PM EDT
Moon 9:58 AM EDT (5/14) 12:12 AM EDT (5/14)
Length of Visible Light 15h 52m
Length of Day
14h 45m
Waxing Crescent, 19% of the Moon is Illuminated
May 14
Waxing Crescent
May 18
First Quarter
May 25
Full
May 31
Last Quarter
Jun 8
New

Hourly Weather History & Observations

Time (EDT) Temp. Windchill Dew Point Humidity Pressure Visibility Wind Dir Wind Speed Gust Speed Precip Events Conditions
12:15 AM 42.8 °F 40.1 °F 33.8 °F 70% 30.06 in 10.0 mi West 4.6 mph - N/A   Overcast
12:35 AM 42.8 °F - 33.8 °F 70% 30.05 in 10.0 mi Calm Calm - N/A   Overcast
12:55 AM 42.8 °F 41.1 °F 33.8 °F 70% 30.04 in 10.0 mi ESE 3.5 mph - N/A   Overcast
1:15 AM 42.8 °F 38.0 °F 32.0 °F 66% 30.02 in 10.0 mi East 8.1 mph - N/A   Overcast
1:35 AM 42.8 °F 41.1 °F 30.2 °F 61% 30.02 in 10.0 mi SE 3.5 mph - N/A   Overcast
1:55 AM 42.8 °F 39.3 °F 33.8 °F 70% 30.02 in 9.0 mi East 5.8 mph - N/A   Overcast
2:15 AM 41.0 °F 38.0 °F 33.8 °F 76% 30.01 in 10.0 mi ESE 4.6 mph - 0.01 in   Overcast
2:35 AM 41.0 °F 35.2 °F 33.8 °F 76% 29.97 in 10.0 mi ESE 9.2 mph - 0.02 in   Overcast
2:55 AM 41.0 °F 36.4 °F 33.8 °F 76% 29.95 in 10.0 mi ESE 6.9 mph - 0.02 in   Overcast
3:15 AM 41.0 °F 35.8 °F 32.0 °F 70% 29.95 in 10.0 mi SE 8.1 mph - N/A   Overcast
3:35 AM 42.8 °F 38.0 °F 32.0 °F 66% 29.94 in 10.0 mi SE 8.1 mph - N/A   Overcast
3:55 AM 42.8 °F 37.5 °F 32.0 °F 66% 29.91 in 10.0 mi SE 9.2 mph - N/A   Overcast
4:15 AM 42.8 °F 38.0 °F 32.0 °F 66% 29.92 in 10.0 mi ESE 8.1 mph - N/A   Mostly Cloudy
4:35 AM 42.8 °F 38.6 °F 30.2 °F 61% 29.90 in 10.0 mi SE 6.9 mph - N/A   Overcast
4:55 AM 42.8 °F 38.0 °F 30.2 °F 61% 29.88 in 10.0 mi ESE 8.1 mph - N/A   Overcast
5:15 AM 44.6 °F 39.7 °F 30.2 °F 57% 29.88 in 10.0 mi SE 9.2 mph 16.1 mph N/A   Overcast
5:35 AM 44.6 °F 40.2 °F 30.2 °F 57% 29.87 in 10.0 mi ESE 8.1 mph - N/A   Overcast
5:55 AM 44.6 °F 39.2 °F 28.4 °F 53% 29.86 in 10.0 mi SE 10.4 mph 16.1 mph N/A   Mostly Cloudy
6:15 AM 46.4 °F 42.9 °F 28.4 °F 50% 29.85 in 10.0 mi SE 6.9 mph 16.1 mph N/A   Mostly Cloudy
6:35 AM 46.4 °F 42.4 °F 28.4 °F 50% 29.85 in 10.0 mi ESE 8.1 mph - N/A   Mostly Cloudy
6:55 AM 46.4 °F 42.4 °F 28.4 °F 50% 29.85 in 10.0 mi SE 8.1 mph - N/A   Scattered Clouds
7:15 AM 48.2 °F - 28.4 °F 46% 29.83 in 10.0 mi SE 8.1 mph - N/A   Partly Cloudy
7:35 AM 48.2 °F - 28.4 °F 46% 29.82 in 10.0 mi SE 6.9 mph - N/A   Mostly Cloudy
7:55 AM 50.0 °F - 28.4 °F 43% 29.81 in 10.0 mi SE 8.1 mph - N/A   Scattered Clouds
8:15 AM 51.8 °F - 30.2 °F 44% 29.80 in 10.0 mi ESE 8.1 mph - N/A   Partly Cloudy
8:35 AM 53.6 °F - 30.2 °F 41% 29.81 in 10.0 mi ESE 6.9 mph - N/A   Clear
8:55 AM 55.4 °F - 32.0 °F 41% 29.80 in 10.0 mi ESE 4.6 mph - N/A   Clear
9:15 AM 57.2 °F - 33.8 °F 41% 29.80 in 10.0 mi SSE 9.2 mph - N/A   Clear
9:35 AM 57.2 °F - 33.8 °F 41% 29.79 in 10.0 mi SSE 6.9 mph - N/A   Clear
9:55 AM 60.8 °F - 35.6 °F 39% 29.80 in 10.0 mi South 8.1 mph - N/A   Clear
10:15 AM 60.8 °F - 35.6 °F 39% 29.78 in 10.0 mi South 10.4 mph 16.1 mph N/A   Clear
10:35 AM 62.6 °F - 37.4 °F 39% 29.76 in 10.0 mi South 10.4 mph - N/A   Clear
10:55 AM 62.6 °F - 37.4 °F 39% 29.75 in 10.0 mi SSE 10.4 mph 19.6 mph N/A   Clear
11:15 AM 64.4 °F - 39.2 °F 40% 29.76 in 10.0 mi South 8.1 mph 16.1 mph N/A   Clear
11:35 AM 64.4 °F - 41.0 °F 42% 29.79 in 10.0 mi SW 10.4 mph 17.3 mph N/A   Clear
11:55 AM 64.4 °F - 41.0 °F 42% 29.79 in 10.0 mi SW 11.5 mph - N/A   Clear
12:15 PM 64.4 °F - 41.0 °F 42% 29.78 in 10.0 mi SW 11.5 mph - N/A   Clear
12:35 PM 64.4 °F - 41.0 °F 42% 29.78 in 10.0 mi SW 5.8 mph - N/A   Clear
12:55 PM 66.2 °F - 42.8 °F 43% 29.78 in 10.0 mi South 9.2 mph 16.1 mph N/A   Clear
1:15 PM 66.2 °F - 42.8 °F 43% 29.77 in 10.0 mi SSW 10.4 mph - N/A   Clear
1:35 PM 66.2 °F - 42.8 °F 43% 29.77 in 10.0 mi South 8.1 mph - N/A   Clear
1:55 PM 66.2 °F - 44.6 °F 46% 29.78 in 10.0 mi SSW 8.1 mph - N/A   Clear
2:15 PM 62.6 °F - 42.8 °F 48% 29.80 in 10.0 mi West 13.8 mph 18.4 mph N/A   Clear
2:35 PM 59.0 °F - 42.8 °F 55% 29.80 in 10.0 mi West 12.7 mph - N/A   Partly Cloudy
2:55 PM 59.0 °F - 42.8 °F 55% 29.81 in 10.0 mi West 12.7 mph - N/A   Clear
3:15 PM 57.2 °F - 42.8 °F 59% 29.82 in 10.0 mi West 11.5 mph - N/A   Clear
3:35 PM 55.4 °F - 42.8 °F 63% 29.81 in 10.0 mi West 8.1 mph - N/A   Clear
3:55 PM 57.2 °F - 42.8 °F 59% 29.79 in 10.0 mi West 8.1 mph - N/A   Clear
4:15 PM 57.2 °F - 42.8 °F 59% 29.79 in 10.0 mi West 5.8 mph - N/A   Clear
4:35 PM 59.0 °F - 42.8 °F 55% 29.78 in 10.0 mi West 5.8 mph - N/A   Clear
4:55 PM 60.8 °F - 44.6 °F 55% 29.79 in 10.0 mi West 6.9 mph - N/A   Clear
5:15 PM 60.8 °F - 44.6 °F 55% 29.78 in 10.0 mi WNW 5.8 mph - N/A   Clear
5:35 PM 62.6 °F - 44.6 °F 52% 29.75 in 10.0 mi NNW 3.5 mph - N/A   Clear
5:55 PM 64.4 °F - 44.6 °F 49% 29.73 in 10.0 mi Calm Calm - N/A   Clear
6:15 PM 64.4 °F - 46.4 °F 52% 29.74 in 10.0 mi Calm Calm - N/A   Scattered Clouds
6:35 PM 66.2 °F - 46.4 °F 49% 29.72 in 10.0 mi South 5.8 mph - N/A   Scattered Clouds
6:55 PM 66.2 °F - 46.4 °F 49% 29.72 in 10.0 mi South 6.9 mph - N/A   Clear
7:15 PM 66.2 °F - 46.4 °F 49% 29.69 in 10.0 mi SSE 8.1 mph - N/A   Clear
7:35 PM 66.2 °F - 46.4 °F 49% 29.65 in 10.0 mi ESE 8.1 mph - N/A   Partly Cloudy
7:55 PM 66.2 °F - 46.4 °F 49% 29.66 in 10.0 mi East 3.5 mph - N/A   Clear
8:15 PM 66.2 °F - 46.4 °F 49% 29.68 in 10.0 mi WSW 5.8 mph - N/A   Clear
8:35 PM 64.4 °F - 46.4 °F 52% 29.69 in 10.0 mi WSW 4.6 mph - N/A   Clear
8:55 PM 64.4 °F - 48.2 °F 56% 29.69 in 10.0 mi West 9.2 mph - N/A   Clear
9:15 PM 57.2 °F - 46.4 °F 67% 29.68 in 10.0 mi Calm Calm - N/A   Clear
9:35 PM 57.2 °F - 46.4 °F 67% 29.68 in 10.0 mi ESE 3.5 mph - N/A   Clear
9:55 PM 60.8 °F - 48.2 °F 63% 29.67 in 10.0 mi SE 5.8 mph - N/A   Clear
10:15 PM 62.6 °F - 48.2 °F 59% 29.67 in 10.0 mi SE 5.8 mph - N/A   Clear
10:35 PM 62.6 °F - 48.2 °F 59% 29.66 in 10.0 mi SE 4.6 mph - N/A   Clear
10:55 PM 62.6 °F - 48.2 °F 59% 29.65 in 10.0 mi ESE 5.8 mph - N/A   Clear
11:15 PM 62.6 °F - 48.2 °F 59% 29.64 in 10.0 mi ESE 6.9 mph - N/A   Partly Cloudy
11:35 PM 62.6 °F - 48.2 °F 59% 29.62 in 10.0 mi ESE 8.1 mph - N/A   Clear
11:55 PM 62.6 °F - 46.4 °F 55% 29.60 in 10.0 mi ESE 6.9 mph - N/A   Partly Cloudy